Weather History for Birmingham, AL

Change the Weather History Date:

Sunday, January 22, 2012

  Actual Average Record
Temperature  
Mean Temperature 57 °F 44 °F  
Max Temperature 66 °F 54 °F 78 °F (1937)
Min Temperature 48 °F 34 °F 10 °F (1985)
Degree Days  
Heating Degree Days 8 21  
Month to date heating degree days 349 471  
Since 1 July heating degree days 1262 1518  
Growing Degree Days 6 (Base 50)    
Moisture  
Dew Point 54 °F    
Average Humidity 94    
Maximum Humidity 100    
Minimum Humidity 87    
Precipitation  
Precipitation T in 0.16 in 2.70 in (1980)
Month to date precipitation 2.89 3.36  
Year to date precipitation 2.89 3.36  
Snow  
Snow 0.00 in 0.00 in - ()
Month to date snowfall 0.0 0.4  
Since 1 July snowfall T 0.5  
Snow Depth 0.00 in    
Sea Level Pressure  
Sea Level Pressure 30.04 in    
Wind  
Wind Speed 6 mph (ESE)    
Max Wind Speed 20 mph    
Max Gust Speed 28 mph    
Visibility 5 miles    
Events      
T = Trace of Precipitation, MM = Missing Value Source: NWS Daily Summary

Daily Weather History Graph

Daily Weather History Graph

Search for Another Location

Airport:

Trip Planner

Search our weather history database for the weather conditions in past years. The results will help you decide how hot, cold, wet, or windy it might be!

Date:

Astronomy

Jan. 22, 2012 Rise Set
Actual Time 6:49 AM CST 5:08 PM CST
Civil Twilight 6:22 AM CST 5:34 PM CST
Nautical Twilight 5:52 AM CST 6:05 PM CST
Astronomical Twilight 5:22 AM CST 6:34 PM CST
Moon 6:05 AM CST (1/22) 4:48 PM CST (1/22)
Length of Visible Light 11h 12m
Length of Day
10h 18m
Waning Crescent, 0% of the Moon is Illuminated
Jan 22
Waning Crescent
Jan 23
New
Jan 30
First Quarter
Feb 7
Full
Feb 14
Last Quarter

Hourly Weather History & Observations

Time (CST) Temp. Dew Point Humidity Pressure Visibility Wind Dir Wind Speed Gust Speed Precip Events Conditions
12:53 AM 48.0 °F 48.0 °F 100% 30.07 in 1.8 mi Calm Calm - N/A   Overcast
1:02 AM 48.2 °F 48.2 °F 100% 30.08 in 2.5 mi Calm Calm - N/A   Overcast
1:16 AM 48.2 °F 46.4 °F 93% 30.08 in 1.2 mi Calm Calm - N/A   Overcast
1:26 AM 48.2 °F 48.2 °F 100% 30.08 in 0.8 mi Calm Calm - N/A   Overcast
1:35 AM 48.2 °F 48.2 °F 100% 30.08 in 1.0 mi Calm Calm - N/A   Overcast
1:53 AM 48.0 °F 48.0 °F 100% 30.06 in 3.0 mi ENE 3.5 mph - N/A   Overcast
2:36 AM 48.2 °F 48.2 °F 100% 30.07 in 2.5 mi Calm Calm - N/A   Overcast
2:53 AM 48.9 °F 48.0 °F 97% 30.05 in 1.8 mi Calm Calm - N/A   Overcast
3:43 AM 50.0 °F 48.2 °F 94% 30.04 in 2.5 mi Calm Calm - N/A   Overcast
3:53 AM 50.0 °F 48.9 °F 96% 30.04 in 3.0 mi North 3.5 mph - N/A   Overcast
4:53 AM 51.8 °F 48.2 °F 88% 30.05 in 7.0 mi Calm Calm - N/A   Overcast
5:35 AM 51.8 °F 51.8 °F 100% 30.06 in 2.0 mi Calm Calm - N/A   Overcast
5:43 AM 51.8 °F 51.8 °F 100% 30.05 in 1.8 mi ENE 3.5 mph - N/A   Overcast
5:53 AM 51.1 °F 51.1 °F 100% 30.05 in 2.0 mi Calm Calm - N/A   Overcast
6:15 AM 51.8 °F 51.8 °F 100% 30.05 in 4.0 mi Calm Calm - N/A   Overcast
6:53 AM 53.1 °F 52.0 °F 96% 30.04 in 3.0 mi East 3.5 mph - N/A   Overcast
7:37 AM 53.6 °F 51.8 °F 94% 30.06 in 2.0 mi ESE 10.4 mph - N/A   Overcast
7:53 AM 54.0 °F 53.1 °F 97% 30.07 in 2.0 mi ESE 8.1 mph - N/A   Overcast
8:49 AM 55.4 °F 53.6 °F 94% 30.08 in 4.0 mi Calm Calm - N/A   Overcast
8:50 AM 55.0 °F 53.1 °F 93% 30.07 in 4.0 mi Calm Calm - N/A   Overcast
9:53 AM 57.2 °F 55.4 °F 94% 30.10 in 4.0 mi NNE 3.5 mph - N/A   Overcast
10:53 AM 59.0 °F 57.0 °F 93% 30.08 in 5.0 mi East 4.6 mph - N/A   Overcast
11:53 AM 60.1 °F 57.9 °F 93% 30.06 in 5.0 mi Calm Calm - N/A   Overcast
12:53 PM 61.0 °F 59.0 °F 93% 30.04 in 4.0 mi ESE 4.6 mph - N/A   Overcast
1:53 PM 62.1 °F 59.0 °F 90% 30.02 in 6.0 mi ESE 4.6 mph - N/A   Overcast
2:53 PM 63.0 °F 60.1 °F 90% 30.01 in 6.0 mi SSE 6.9 mph - N/A   Overcast
3:53 PM 63.0 °F 60.1 °F 90% 30.01 in 3.0 mi ESE 6.9 mph - 0.00 in   Light Drizzle
4:53 PM 62.1 °F 60.1 °F 93% 30.02 in 5.0 mi SSE 9.2 mph 18.4 mph 0.00 in   Light Drizzle
5:53 PM 63.0 °F 60.1 °F 90% 30.02 in 9.0 mi SE 13.8 mph 20.7 mph 0.00 in   Overcast
6:53 PM 62.1 °F 59.0 °F 90% 30.01 in 10.0 mi SE 9.2 mph 20.7 mph N/A   Overcast
7:11 PM 62.6 °F 59.0 °F 88% 30.02 in 10.0 mi SE 13.8 mph 21.9 mph N/A   Overcast
7:53 PM 63.0 °F 59.0 °F 87% 30.01 in 10.0 mi SE 12.7 mph 23.0 mph N/A   Overcast
8:53 PM 63.0 °F 60.1 °F 90% 29.99 in 10.0 mi SE 11.5 mph - N/A   Overcast
9:53 PM 63.0 °F 61.0 °F 93% 29.97 in 10.0 mi SSE 13.8 mph 24.2 mph N/A   Overcast
10:05 PM 64.4 °F 60.8 °F 88% 29.97 in 10.0 mi SSE 15.0 mph 23.0 mph N/A   Overcast
10:18 PM 64.4 °F 60.8 °F 88% 29.98 in 10.0 mi SSE 15.0 mph 24.2 mph N/A   Overcast
10:53 PM 64.9 °F 61.0 °F 87% 29.94 in 10.0 mi SSE 15.0 mph 21.9 mph N/A   Overcast
11:53 PM 66.0 °F 62.1 °F 87% 29.90 in 10.0 mi SSE 17.3 mph 27.6 mph N/A   Overcast